Hourly Data Report for September 29, 2017

All times are specified in Local Standard Time (LST). Add 1 hour to adjust for Daylight Saving Time where and when it is observed.

WOODSTOCK NEWBRIDGE
NEW BRUNSWICK

46°09'08.000" N
67°32'34.000" W
154.00 m
8105603
71606
EWD

Download Data

Hourly Data (September 2017)
Hourly Data Report for September 29, 2017
Temp Definition
°C
Dew Point Temp Definition
°C
Rel Hum Definition
%
Wind Dir Definition
10's deg

Wind Spd Definition
km/h
Visibility Definition
km
Stn Press Definition
kPa
Hmdx Definition


Wind Chill Definition


Weather Definition


TIME
00:00 7.2 3.0 75 28 9   99.17     LegendNANA
01:00 6.6 2.9 77 27 7   99.22     LegendNANA
02:00 6.1 3.0 81 28 6   99.24     LegendNANA
03:00 6.1 3.0 81 26 7   99.26     LegendNANA
04:00 5.8 2.9 82 27 6   99.29     LegendNANA
05:00 4.6 2.2 84 28 7   99.30     LegendNANA
06:00 3.6 2.0 90 26 9   99.34     LegendNANA
07:00 4.3 2.1 85 29 8   99.41     LegendNANA
08:00 5.8 2.4 79 29 8   99.47     LegendNANA
09:00 7.7 2.0 67 31 12   99.50     LegendNANA
10:00 8.7 1.4 60 34 11   99.60     LegendNANA
11:00 9.2 1.4 58 30 14   99.60     LegendNANA
12:00 10.1 1.3 54 31 13   99.61     LegendNANA
13:00 10.0 1.6 56 31 11   99.65     LegendNANA
14:00 10.1 1.0 53 31 13   99.69     LegendNANA
15:00 10.1 0.9 53 32 9   99.74     LegendNANA
16:00 10.0 0.9 53 32 10   99.77     LegendNANA
17:00 9.4 0.7 55 33 9   99.82     LegendNANA
18:00 8.8 1.3 59 32 7   99.91     LegendNANA
19:00 8.8 0.5 56 33 7   99.97     LegendNANA
20:00 8.3 1.6 63 31 2   100.06     LegendNANA
21:00 7.0 2.2 71 32 2   100.12     LegendNANA
22:00 5.9 1.8 75 32 2   100.14     LegendNANA
23:00 3.1 1.6 90 35 1   100.20     LegendNANA

Notes on Data Quality.

Legend

  • E = Estimated
  • M = Missing
  • NA = Not Available
  • ‡ = Partner data that is not subject to review by the National Climate Archives
Date modified: